Regional Weather Roundup
Issued by NWS Albany, NY

Current Version | Previous Version | Graphics & Text | Print | Product List | Glossary Off
Versions: 1 2 3 4 5 6 7 8 9 10 11 12 13 14 15 16 17 18 19 20 21 22 23 24 25 26 27

000
ASUS41 KALY 121210
RWRALY

NEW YORK STATE HOURLY WEATHER ROUNDUP
NATIONAL WEATHER SERVICE ALBANY NY
700 AM EST TUE DEC 12 2017

NOTE: "FAIR" INDICATES FEW OR NO CLOUDS BELOW 12,000 FEET WITH NO
SIGNIFICANT WEATHER AND/OR NO OBSTRUCTIONS TO VISIBILITY.

NYZ032-033-038>043-046>054-057>066-NYZ062>081-082-084-121300-
EAST


CITY           SKY/WX    TMP DP  RH WIND       PRES   REMARKS
ALBANY         LGT SNOW  30  27  88 S7        29.66F FOG     WCI  23
GLENS FALLS    SNOW      23  22  96 CALM      29.67F VSB 1/2
POUGHKEEPSIE   CLOUDY    38  30  73 VRB6      29.66F WCI  33
NEWBURGH       CLOUDY    36  34  93 SE12      29.66F WCI  27
MONTGOMERY     CLOUDY    32  29  88 N5        29.65F WCI  27
WHITE PLAINS   LGT RAIN  39  35  86 SE6       29.67F WCI  35
ISLIP          CLOUDY    46  36  68 S13       29.72F
NEW YORK CITY  CLOUDY    48  38  68 S16G22    29.67F
CENTRAL PARK   CLOUDY    47  38  71 MISG      29.69F
$$

NYZ005>009-017-018-044>046-055-056-121300-
CENTRAL


CITY           SKY/WX    TMP DP  RH WIND       PRES   REMARKS
FULTON         LGT SNOW  31  29  92 SE5       29.52F VSB 3/4 WCI  26
SYRACUSE       LGT SNOW  30  30 100 NE8       29.52F FOG     WCI  22
ROME           LGT SNOW  28  27  96 E9        29.57F VSB 3/4 WCI  19
ELMIRA         LGT SNOW  34  30  85 CALM      29.49F VSB 1
BINGHAMTON     CLOUDY    30  28  92 S10       29.49S WCI  21
$$

NYZ026>034-041>043-087-121300-
NORTH


CITY           SKY/WX    TMP DP  RH WIND       PRES   REMARKS
WATERTOWN      LGT SNOW  30  28  92 NE7       29.53F FOG     WCI  23
FORT DRUM      NOT AVBL
OGDENSBURG     LGT SNOW  17  15  90 NE9       29.60F WCI   6
MASSENA        LGT SNOW  17  15  92 E15       29.65F VSB 1   WCI   2
SARANAC LAKE   LGT SNOW  20  19  96 MISG      29.52F VSB 1
PLATTSBURGH    LGT SNOW  22  19  89 CALM      29.69F FOG
$$

NYZ001>004-010>016-019>021-085-121300-
WEST


CITY           SKY/WX    TMP DP  RH WIND       PRES   REMARKS
NIAGARA FALLS  LGT SNOW  30  27  88 CALM      29.50S FOG
BUFFALO        LGT SNOW  30  29  96 CALM      29.50S FOG
DUNKIRK        LGT SNOW  32  31  96 NW12      29.53R FOG     WCI  23
JAMESTOWN      LGT SNOW  28  27  93 W7        29.49R FOG     WCI  21
WELLSVILLE     LGT SNOW  31  27  85 SW6       29.45R VSB 1   WCI  25
ROCHESTER      LGT SNOW  30  30 100 CALM      29.50S VSB 3/4
PENN YAN       LGT SNOW  30  26  85 CALM      29.49S VSB 3/4
$$

             KEY
       WCI = WIND CHILL INDEX
       VSB = VISIBILITY
       HX  = HEAT INDEX
$$




USA.gov is the U.S. government's official web portal to all federal, state and local government web resources and services.